[[{"header":{"parameterUnit":"m.s-1","parameterCategory":1,"la1":30.2991,"la2":30.254,"lo1":-89.0895,"lo2":-89.0444,"dy":0.0017,"dx":0.0017,"nx":28,"ny":28,"refTime":"2026-02-09T03:00:00:Z","depth":0,"parameterNumber":2,"parameterNumberName":"U-component_of_WINDS"},"data":[0,0,0,0,0,0,0,0,0,0,0,0,0,0,0,0,0,0,0,0,0,0,0,0,0,0,0,0,0,0,0,0,0,0,0,0,0,0,0,0,0,0,0,0,0,0,0,0,0,0,0,0,0,0,0,0,0,0,0.511,0.5112,0,0.5268,0.527,0.5271,0.5348,0.5348,0.5348,0.5348,0.5515,0.552,0.5524,0,0,0,0,0,0,0,0,0,0,0,0,0,0.488,0.4884,0.511,0.5112,0.5114,0.5268,0.527,0.5272,0.5348,0.5348,0.5348,0.5348,0.5514,0.5519,0.5525,0,0,0,0,0,0,0,0,0,0,0,0,0,0.5003,0.4885,0.511,0.517,0.5177,0.5267,0.527,0.5272,0.5348,0.5348,0.5348,0.5348,0.5512,0.5519,0.5525,0.5568,0,0,0.5546,0.5549,0,0,0,0,0,0,0,0,0.4996,0.5012,0.5159,0.5166,0.5174,0.5288,0.525,0.5372,0.5348,0.5283,0.5348,0.5348,0.544,0.5453,0.5483,0.5576,0.5583,0.5547,0.5551,0.5554,0.5555,0,0,0,0,0,0,0,0.4988,0.5005,0.5173,0.5161,0.5171,0.5192,0.5209,0.5274,0.5361,0.5289,0.5295,0.5312,0.5444,0.5476,0.5487,0.5586,0.5546,0.5552,0.5557,0.5559,0.5724,0.5724,0,0,0,0,0,0,0.4968,0.4998,0.5168,0.5177,0.5083,0.5196,0.5215,0.5252,0.536,0.5376,0.5312,0.5315,0.5465,0.5479,0.5493,0.5552,0.5554,0.556,0.5564,0.5724,0.5724,0.5725,0,0,0,0,0,0,0.4963,0.4983,0.5161,0.5089,0.5113,0.52,0.524,0.5255,0.5287,0.5377,0.5394,0.5328,0.5465,0.5484,0.5549,0.5559,0.5563,0.5569,0.5723,0.5724,0.5724,0.5668,0,0,0,0,0,0,0.4956,0.498,0.4996,0.5089,0.5117,0.5212,0.5241,0.5258,0.5298,0.5303,0.5397,0.5413,0.5467,0.5539,0.5556,0.5568,0.5574,0.5723,0.5724,0.5724,0.567,0.5667,0.5664,0,0,0,0,0,0.4948,0.4975,0.4997,0.5017,0.5138,0.5213,0.5229,0.5289,0.5298,0.5316,0.5374,0.541,0.5555,0.5545,0.5565,0.5579,0.5723,0.5723,0.5724,0.5671,0.5667,0.5664,0,0,0,0,0,0,0.4884,0.4989,0.5013,0.5071,0.5132,0.5225,0.5249,0.5283,0.5344,0.5347,0.5421,0.5441,0.55,0.5546,0.5533,0.5627,0.5642,0.5647,0.5595,0.5592,0.559,0.5578,0.558,0,0,0,0,0,0.4876,0.4925,0.5015,0.5058,0.5087,0.5162,0.5197,0.5238,0.5305,0.5332,0.5395,0.546,0.5521,0.5559,0.562,0.5676,0.5699,0.5697,0.5694,0.5691,0.5695,0.573,0.573,0.5727,0.5727,0.5727,0,0,0.4861,0.4924,0.4952,0.5046,0.5098,0.515,0.5184,0.5237,0.5277,0.5341,0.5405,0.5454,0.5532,0.5593,0.5623,0.5633,0.57,0.5692,0.5689,0.5695,0.573,0.573,0.5731,0.5728,0.5727,0.5727,0,0,0.4861,0.4913,0.4954,0.5005,0.5083,0.5133,0.5143,0.5231,0.5265,0.5331,0.538,0.5429,0.5531,0.5585,0.5626,0.5645,0.5681,0.5663,0.5649,0.5682,0.5683,0.5683,0.5691,0.5693,0.5666,0.5666,0.5666,0,0.4833,0.4911,0.4972,0.5022,0.5063,0.5121,0.5165,0.5212,0.5306,0.5334,0.5343,0.5473,0.5529,0.5604,0.5609,0.564,0.5655,0.5653,0.5677,0.5679,0.568,0.5689,0.5691,0.5663,0.5664,0.5664,0.5664,0,0.4874,0.4927,0.4951,0.5039,0.5083,0.5129,0.5199,0.5236,0.5273,0.5323,0.539,0.546,0.5536,0.5556,0.5594,0.5637,0.5641,0.5663,0.568,0.5677,0.5686,0.569,0.566,0.5661,0.5661,0.5662,0,0,0.4838,0.4957,0.4966,0.5006,0.5096,0.514,0.519,0.5262,0.5293,0.5356,0.5401,0.5486,0.5507,0.5553,0.5597,0.5625,0.5638,0.5644,0.5647,0.5641,0.5691,0.5675,0.5678,0.5661,0.5662,0.5663,0.5685,0,0.4851,0.4941,0.4997,0.5066,0.5116,0.5172,0.5216,0.5277,0.5325,0.5376,0.543,0.5489,0.5512,0.554,0.5571,0.5629,0.5649,0.5629,0.5706,0.5708,0.5685,0.5682,0.5665,0.5683,0.5689,0.569,0.569,0,0.4878,0.4937,0.501,0.5094,0.5118,0.5156,0.5227,0.5275,0.5346,0.5379,0.543,0.5474,0.5531,0.5542,0.5623,0.5607,0.5642,0.5676,0.5678,0.5689,0.5699,0.5694,0.569,0.5693,0.5696,0.5696,0.5696,0,0.4845,0.4944,0.5001,0.5034,0.5133,0.5159,0.5202,0.5272,0.5313,0.5375,0.5403,0.5472,0.551,0.5563,0.5626,0.5628,0.57,0.5716,0.5731,0.5729,0.5745,0.5743,0.5747,0.5765,0.5765,0.5765,0.5765,0,0.4854,0.4897,0.4987,0.5022,0.5072,0.5137,0.5186,0.5234,0.5296,0.5343,0.5395,0.5439,0.5518,0.5571,0.562,0.568,0.5697,0.5726,0.5739,0.5722,0.5718,0.5747,0.5748,0.5766,0.5766,0.5765,0.5765,0,0.4827,0.4889,0.4955,0.5043,0.5066,0.5099,0.5176,0.5213,0.5263,0.5322,0.5339,0.5419,0.5484,0.5551,0.564,0.5674,0.5732,0.5749,0.5708,0.5715,0.5726,0.5724,0.575,0.5757,0.5768,0.5768,0.5768,0,0.4829,0.4863,0.4955,0.4989,0.503,0.5084,0.5125,0.5191,0.5232,0.5315,0.5342,0.5411,0.5469,0.5572,0.5639,0.5707,0.5727,0.5731,0.5738,0.572,0.5729,0.5726,0.573,0.5729,0.5729,0.5728,0.5728,0,0.4827,0.4856,0.4911,0.4978,0.5024,0.508,0.5139,0.5164,0.5242,0.5285,0.5351,0.5396,0.5487,0.5555,0.5631,0.5678,0.5717,0.5725,0.5732,0.5716,0.5691,0.5705,0.5702,0.5724,0.5725,0.5725,0.5725,0.5725,0.4816,0.4848,0.4918,0.4978,0.5028,0.5081,0.512,0.5175,0.5231,0.5308,0.5344,0.5411,0.5482,0.5588,0.5634,0.5689,0.57,0.571,0.5713,0.5714,0.571,0.568,0.5703,0.5703,0.5703,0.5704,0.5704,0,0.4817,0.4864,0.4918,0.4997,0.5045,0.5075,0.5141,0.5179,0.5237,0.5299,0.5355,0.5432,0.5499,0.557,0.5642,0.5672,0.5691,0.5688,0.5687,0.5698,0.5696,0.5683,0.5671,0.5671,0.5671,0.5671,0.5671,0.5671,0.4823,0.488,0.4917,0.5001,0.5049,0.5113,0.5148,0.5198,0.5248,0.5331,0.5385,0.5431,0.5498,0.5574,0.5637,0.5657,0.5681,0.5673,0.5698,0.5695,0.5698,0.57,0.5688,0.5677,0.5677,0.5695,0.5695,0.5695]},{"header":{"parameterUnit":"m.s-1","parameterCategory":1,"la1":30.2991,"la2":30.254,"lo1":-89.0895,"lo2":-89.0444,"dy":0.0017,"dx":0.0017,"nx":28,"ny":28,"refTime":"2026-02-09T03:00:00:Z","depth":0,"parameterNumber":3,"parameterNumberName":"V-component_of_WINDS"},"data":[0,0,0,0,0,0,0,0,0,0,0,0,0,0,0,0,0,0,0,0,0,0,0,0,0,0,0,0,0,0,0,0,0,0,0,0,0,0,0,0,0,0,0,0,0,0,0,0,0,0,0,0,0,0,0,0,0,0,2.1529,2.1528,0,2.1436,2.1435,2.1434,2.1383,2.1383,2.1383,2.1383,2.1281,2.1278,2.1276,0,0,0,0,0,0,0,0,0,0,0,0,0,2.1655,2.1653,2.1529,2.1528,2.1527,2.1436,2.1435,2.1434,2.1383,2.1383,2.1383,2.1383,2.1282,2.1279,2.1276,0,0,0,0,0,0,0,0,0,0,0,0,0,2.1585,2.1652,2.1529,2.1491,2.1486,2.1437,2.1435,2.1434,2.1383,2.1383,2.1383,2.1383,2.1283,2.1279,2.1275,2.1254,0,0,2.1263,2.1261,0,0,0,0,0,0,0,0,2.1589,2.158,2.1498,2.1493,2.1488,2.1421,2.1442,2.1373,2.1383,2.1422,2.1383,2.1383,2.1327,2.132,2.1302,2.1249,2.1245,2.1263,2.126,2.1259,2.1258,0,0,0,0,0,0,0,2.1594,2.1584,2.1492,2.1496,2.1491,2.1476,2.1466,2.1429,2.1377,2.1419,2.1415,2.1405,2.1325,2.1306,2.13,2.1244,2.1263,2.1259,2.1257,2.1255,2.1167,2.1167,0,0,0,0,0,0,2.1606,2.1588,2.1495,2.1489,2.154,2.1474,2.1462,2.1443,2.1377,2.1367,2.1405,2.1403,2.1313,2.1304,2.1296,2.1267,2.1259,2.1255,2.1253,2.1167,2.1167,2.1167,0,0,0,0,0,0,2.1609,2.1598,2.1499,2.1538,2.1524,2.1472,2.145,2.1441,2.1423,2.1367,2.1356,2.1397,2.1313,2.1301,2.1265,2.1263,2.1253,2.125,2.1167,2.1167,2.1167,2.1209,0,0,0,0,0,0,2.1613,2.1599,2.1593,2.1538,2.1522,2.1472,2.145,2.1439,2.1417,2.1413,2.1356,2.1346,2.1312,2.1271,2.1261,2.1257,2.1247,2.1167,2.1167,2.1167,2.1208,2.1211,2.1213,0,0,0,0,0,2.1617,2.1607,2.1593,2.1582,2.1513,2.1472,2.1463,2.1425,2.1417,2.1409,2.1373,2.1348,2.1265,2.1268,2.1256,2.1251,2.1167,2.1167,2.1167,2.1207,2.121,2.1213,0,0,0,0,0,0,2.166,2.1599,2.1583,2.1555,2.152,2.1464,2.1453,2.143,2.1395,2.1392,2.1345,2.1332,2.13,2.1271,2.1277,2.1227,2.1213,2.1211,2.1247,2.125,2.1252,2.126,2.1243,0,0,0,0,0,2.1667,2.1641,2.1588,2.1568,2.1552,2.1505,2.1486,2.146,2.1421,2.1405,2.1366,2.1326,2.1291,2.1268,2.1233,2.1203,2.1189,2.1193,2.1196,2.1198,2.1197,2.1178,2.1179,2.1168,2.1168,2.1168,0,0,2.168,2.1643,2.1629,2.1576,2.1546,2.1518,2.1493,2.1464,2.1443,2.1399,2.1364,2.1334,2.1286,2.1253,2.1236,2.1228,2.1197,2.1198,2.1201,2.1198,2.1178,2.1179,2.118,2.1168,2.1168,2.1168,0,0,2.1689,2.1659,2.164,2.161,2.1565,2.1534,2.1529,2.1477,2.1456,2.142,2.1387,2.1358,2.1299,2.1266,2.1242,2.1238,2.1214,2.1227,2.1241,2.1223,2.1224,2.1225,2.1223,2.1223,2.1226,2.1226,2.1226,0,2.171,2.167,2.1632,2.1606,2.1583,2.1544,2.1523,2.1495,2.1439,2.1423,2.1415,2.1339,2.1304,2.1263,2.1262,2.1244,2.1235,2.1234,2.1228,2.1228,2.1228,2.1226,2.1225,2.1228,2.1228,2.1228,2.1228,0,2.1698,2.167,2.1659,2.1609,2.1584,2.156,2.1517,2.1496,2.1472,2.1441,2.1403,2.136,2.1315,2.1303,2.1278,2.1257,2.1254,2.1237,2.1223,2.1232,2.1229,2.1227,2.1231,2.123,2.123,2.1229,0,0,2.1733,2.1662,2.1659,2.1636,2.1583,2.1559,2.1532,2.149,2.1473,2.1435,2.1411,2.1361,2.1345,2.1318,2.1289,2.1273,2.1272,2.1258,2.1256,2.1262,2.1245,2.1259,2.1259,2.1255,2.1255,2.1255,2.1249,0,2.1735,2.1689,2.1653,2.1619,2.1592,2.1554,2.1531,2.1494,2.1464,2.1435,2.14,2.1366,2.1348,2.1331,2.1314,2.1276,2.1268,2.1276,2.123,2.1229,2.1244,2.1257,2.1271,2.1269,2.1248,2.1248,2.1248,0,2.1731,2.1698,2.1662,2.1612,2.1599,2.1579,2.1537,2.151,2.1467,2.1446,2.1415,2.1385,2.1353,2.1341,2.1294,2.1301,2.1279,2.1258,2.1256,2.1251,2.124,2.1252,2.1267,2.1267,2.1246,2.1246,2.1246,0,2.1761,2.1706,2.1678,2.1659,2.1599,2.1586,2.156,2.1517,2.1493,2.1456,2.144,2.1398,2.1375,2.1342,2.1301,2.1296,2.1258,2.1243,2.1238,2.1239,2.1233,2.1234,2.1244,2.1219,2.1219,2.1219,2.1219,0,2.1768,2.1747,2.1691,2.1673,2.1648,2.1606,2.1582,2.1552,2.1514,2.1488,2.1451,2.1427,2.1374,2.1342,2.1309,2.1275,2.1265,2.1246,2.1237,2.1249,2.1252,2.1235,2.1234,2.1218,2.1218,2.1218,2.1218,0,2.1797,2.1759,2.1725,2.1672,2.1657,2.1641,2.1594,2.1574,2.1542,2.151,2.1499,2.1448,2.1409,2.1364,2.131,2.1287,2.1256,2.1243,2.1272,2.1267,2.1265,2.1266,2.1266,2.1263,2.1239,2.1239,2.124,0,2.1805,2.1788,2.1733,2.1715,2.1691,2.166,2.1637,2.1594,2.157,2.152,2.1505,2.1464,2.1429,2.1368,2.1324,2.1282,2.1268,2.1271,2.1261,2.1274,2.1268,2.127,2.1268,2.1274,2.1274,2.1275,2.1275,0,2.1822,2.1803,2.1773,2.1735,2.1708,2.1676,2.1641,2.1627,2.1576,2.1551,2.1513,2.1486,2.1431,2.139,2.1342,2.1312,2.1284,2.1278,2.1275,2.1287,2.1305,2.1295,2.1279,2.1278,2.1278,2.1278,2.1278,2.1278,2.184,2.1824,2.1783,2.1749,2.1719,2.1688,2.1667,2.1632,2.16,2.1554,2.1529,2.1491,2.1445,2.1379,2.1349,2.1317,2.1307,2.1303,2.1301,2.1301,2.1305,2.131,2.1307,2.1307,2.1307,2.1307,2.1307,0,2.1856,2.1828,2.1797,2.1751,2.1724,2.1703,2.1663,2.1641,2.1609,2.157,2.1537,2.1491,2.145,2.1403,2.1359,2.1342,2.1328,2.1332,2.1333,2.1326,2.1315,2.1323,2.1344,2.1344,2.1344,2.1344,2.1344,2.1344,2.1861,2.1832,2.1809,2.1764,2.1734,2.1698,2.1678,2.1647,2.1616,2.1568,2.1535,2.1506,2.1463,2.1415,2.1376,2.1363,2.1348,2.1356,2.1339,2.133,2.1327,2.1324,2.1331,2.1353,2.1353,2.1352,2.1352,2.1352]}]]